Weather History for KGLD - January, 2014

Change the Weather History Date:

Sunday, January 26, 2014

  Actual Average Record
Temperature  
Mean Temperature 38 °F 30 °F  
Max Temperature 59 °F 42 °F 79 °F (1951)
Min Temperature 16 °F 17 °F -14 °F (1963)
Degree Days  
Heating Degree Days 27 35  
Month to date heating degree days 863 912  
Since 1 July heating degree days 3229 3319  
Cooling Degree Days 0 0  
Month to date cooling degree days 0 0  
Year to date cooling degree days 0 0  
Moisture  
Dew Point 19 °F    
Average Humidity 50    
Maximum Humidity 75    
Minimum Humidity 24    
Precipitation  
Precipitation 0.00 in 0.01 in 1.02 in (1944)
Month to date precipitation 0.20 0.31  
Year to date precipitation 0.20 0.31  
Snow  
Snow 0.00 in 0.20 in - ()
Month to date snowfall 4.5 4.8  
Since 1 July snowfall 11.3 17.5  
Snow Depth 0.00 in    
Sea Level Pressure  
Sea Level Pressure 29.94 in    
Wind  
Wind Speed 17 mph (NNW)    
Max Wind Speed 38 mph    
Max Gust Speed 49 mph    
Visibility 10 miles    
Events      
T = Trace of Precipitation, MM = Missing Value Source: NWS Daily Summary

Daily Weather History Graph

Daily Weather History Graph

Search for Another Location

Airport or City:

Trip Planner

Search our weather history database for the weather conditions in past years. The results will help you decide how hot, cold, wet, or windy it might be!

Date:

Astronomy

Jan. 26, 2014 Rise Set
Actual Time 6:58 AM MST 5:00 PM MST
Civil Twilight 6:30 AM MST 5:29 PM MST
Nautical Twilight 5:57 AM MST 6:01 PM MST
Astronomical Twilight 5:25 AM MST 6:33 PM MST
Moon 2:38 AM MST (1/26) 12:51 PM MST (1/26)
Length of Visible Light 10h 58m
Length of Day
10h 01m
Waning Crescent, 23% of the Moon is Illuminated
Jan 26
Waning Crescent
Jan 30
New
Feb 6
First Quarter
Feb 14
Full
Feb 22
Last Quarter

Hourly Weather History & Observations

Time (MST) Temp. Windchill Dew Point Humidity Pressure Visibility Wind Dir Wind Speed Gust Speed Precip Events Conditions
12:53 AM 32.0 °F 22.1 °F 24.1 °F 73% 29.84 in 10.0 mi West 13.8 mph - N/A   Clear
1:53 AM 37.0 °F 28.5 °F 23.0 °F 57% 29.83 in 10.0 mi WNW 13.8 mph - N/A   Clear
2:53 AM 34.0 °F 24.6 °F 21.9 °F 61% 29.83 in 10.0 mi WNW 13.8 mph - N/A   Clear
3:53 AM 35.1 °F 25.5 °F 21.9 °F 59% 29.82 in 10.0 mi WNW 15.0 mph - N/A   Clear
4:53 AM 33.1 °F 22.6 °F 21.9 °F 64% 29.85 in 10.0 mi WNW 16.1 mph - N/A   Clear
5:53 AM 34.0 °F 24.2 °F 21.9 °F 61% 29.88 in 10.0 mi NW 15.0 mph - N/A   Clear
6:53 AM 28.9 °F 19.2 °F 21.0 °F 72% 29.88 in 10.0 mi West 11.5 mph - N/A   Clear
7:53 AM 32.0 °F 23.6 °F 23.0 °F 69% 29.87 in 10.0 mi West 10.4 mph - N/A   Clear
8:53 AM 42.1 °F 35.7 °F 25.0 °F 51% 29.86 in 10.0 mi WNW 11.5 mph - N/A   Clear
9:53 AM 48.9 °F - 25.0 °F 39% 29.84 in 10.0 mi North 15.0 mph - N/A   Clear
10:53 AM 52.0 °F - 23.0 °F 32% 29.80 in 10.0 mi NNW 9.2 mph - N/A   Clear
11:53 AM 55.0 °F - 21.9 °F 28% 29.79 in 10.0 mi NW 11.5 mph - N/A   Clear
12:53 PM 55.9 °F - 23.0 °F 28% 29.76 in 10.0 mi NNW 11.5 mph 19.6 mph N/A   Clear
1:53 PM 57.0 °F - 23.0 °F 27% 29.75 in 10.0 mi NW 13.8 mph - N/A   Clear
2:53 PM 57.0 °F - 21.0 °F 25% 29.77 in 10.0 mi North 19.6 mph 31.1 mph N/A   Clear
3:53 PM 50.0 °F - 25.0 °F 38% 29.83 in 10.0 mi North 29.9 mph 43.7 mph N/A   Overcast
4:53 PM 37.0 °F 24.3 °F 25.0 °F 62% 29.96 in 5.0 mi NNE 31.1 mph 49.5 mph N/A   Haze
5:53 PM 30.0 °F 16.6 °F 19.9 °F 66% 30.07 in 10.0 mi North 23.0 mph 32.2 mph N/A   Overcast
6:53 PM 27.0 °F 11.6 °F 18.0 °F 69% 30.13 in 10.0 mi NNE 26.5 mph 39.1 mph N/A   Overcast
7:53 PM 25.0 °F 9.5 °F 10.9 °F 55% 30.17 in 10.0 mi North 24.2 mph 33.4 mph N/A   Overcast
8:53 PM 21.0 °F 4.3 °F 6.1 °F 53% 30.20 in 10.0 mi North 24.2 mph 33.4 mph N/A   Overcast
9:53 PM 19.0 °F 4.0 °F 3.9 °F 52% 30.23 in 10.0 mi North 17.3 mph - N/A   Clear
10:53 PM 17.1 °F 0.6 °F 1.9 °F 52% 30.25 in 10.0 mi North 19.6 mph - N/A   Overcast
11:53 PM 17.1 °F 2.5 °F -2.0 °F 43% 30.26 in 10.0 mi NNE 15.0 mph - N/A   Overcast